Snowfall_Accumulation
0.0 0.0 1.6 0.5 0.0 0.0 0.0 0.0 0.0 0.0 0.2 0.0 0.5 0.4 0.8 0.0 0.0 0.0 0.0 0.0 0.0 0.0 0.0 0.0 0.0 0.0 0.0 0.0 0.0 0.0 0.0 0.0 0.0 0.0 0.0 0.0 0.0 0.0 0.0 0.0 0.0 0.0 0.0 0.0
0.0 0.0 0.4 0.7 0.0 0.0 0.0 0.0 0.0 0.0 0.3 0.0 0.0 0.0 0.0 0.9 0.0 0.0 0.0 0.0 0.0 0.0 0.0 0.0 0.0 0.0 0.0 0.0 0.0 0.0 0.0 0.0 0.0 0.0 0.0 0.0 0.0 0.0 0.0 0.0 0.0 0.0 0.0 0.0
0.1 0.0 0.1 4.1 3.3 0.3 0.1 0.0 0.0 0.1 0.1 0.3 0.4 0.0 0.0 0.0 0.0 0.0 0.0 0.0 0.0 0.0 0.0 0.0 0.0 0.0 0.0 0.0 0.0 0.0 0.0 0.0 0.0 0.0 0.0 0.0 0.0 0.0 0.0 0.0 0.0 0.0 0.0 0.0
0.1 0.0 2.3 3.1 0.5 0.9 3.5 2.1 1.3 0.7 1.1 0.8 0.6 0.0 0.0 0.0 0.0 0.0 0.0 0.0 0.0 0.0 0.0 0.0 0.0 0.0 0.0 0.0 0.0 0.0 0.0 0.0 0.0 0.0 0.0 0.0 0.0 0.0 0.0 0.0 0.0 0.0 0.0 0.0
0.4 0.1 1.2 0.7 0.0 0.1 0.5 1.0 0.5 0.8 0.6 0.2 0.0 0.0 0.0 0.0 0.0 0.0 0.0 0.0 0.0 0.0 0.0 0.0 0.0 0.0 0.0 0.0 0.0 0.0 0.0 0.0 0.0 0.0 0.0 0.0 0.0 0.0 0.0 0.0 0.0 0.0 0.0 0.0
0.1 0.5 2.0 0.7 0.0 0.0 0.0 3.1 0.9 0.1 0.4 0.2 0.0 0.0 0.1 0.0 0.0 0.0 0.0 0.0 0.0 0.0 0.0 2.1 2.8 2.2 3.9 0.0 0.0 0.0 0.0 0.0 0.0 0.0 0.0 0.0 0.0 0.0 0.0 0.0 0.0 0.0 0.0 0.0
0.3 0.7 1.1 0.0 0.0 0.0 1.1 3.8 0.0 0.0 0.4 0.0 0.0 0.0 0.0 0.0 0.0 0.0 0.1 0.1 0.0 0.1 0.3 1.2 2.5 3.9 6.6 7.7 7.2 3.3 2.7 2.0 0.0 0.0 0.0 0.0 0.0 0.0 0.0 0.0 0.0 0.0 0.0 0.0
1.3 1.4 3.2 0.0 0.0 0.5 1.2 0.0 0.0 0.0 0.0 0.0 0.0 0.0 0.0 0.0 0.0 0.3 0.5 0.9 0.6 0.5 0.5 1.2 1.9 4.8 6.8 8.1 8.5 8.4 6.7 7.4 2.9 0.0 1.3 0.0 0.0 0.0 0.0 0.0 0.0 0.0 0.0 0.0
1.4 2.9 0.6 0.1 0.3 0.3 0.1 0.0 0.0 0.0 0.0 0.0 0.0 0.0 0.0 0.0 0.0 1.3 3.1 3.5 1.8 1.6 1.2 0.9 1.6 2.7 4.7 6.3 6.5 8.0 6.8 8.9 5.0 6.1 2.0 1.9 0.0 0.0 0.0 0.0 0.0 0.0 0.0 0.0
1.1 1.0 0.2 0.1 0.1 0.1 0.1 0.0 0.0 0.0 0.0 0.0 0.0 0.0 0.0 0.0 0.0 0.9 3.7 3.4 2.7 2.5 2.1 1.7 1.7 1.4 1.4 1.6 2.1 3.7 5.4 6.4 8.8 6.5 8.3 8.5 3.4 3.5 0.0 0.0 0.0 0.0 0.0 0.0
4.0 2.5 1.3 0.6 0.6 0.8 0.1 0.0 0.0 0.0 0.0 0.0 0.0 0.0 0.0 0.0 0.0 0.1 1.9 2.4 3.3 2.7 2.5 2.9 2.3 1.3 0.8 0.5 0.8 1.6 2.3 2.5 3.8 6.0 8.1 9.2 10.8 11.7 11.1 10.6 0.0 0.0 0.0 0.0
7.3 4.4 3.2 3.1 2.1 1.3 1.1 0.1 0.0 0.0 0.0 0.0 0.0 0.0 0.0 0.0 0.1 0.1 0.2 0.3 0.7 1.0 0.9 0.7 0.6 0.6 0.4 0.3 0.2 0.1 1.0 1.4 2.4 2.9 4.2 5.7 7.4 8.9 8.8 9.0 8.0 7.0 6.3 5.0
3.6 3.8 3.3 3.7 2.7 1.9 1.5 1.1 0.1 0.0 0.0 0.1 0.1 0.0 0.0 0.0 0.0 0.1 0.1 0.2 0.3 0.4 0.4 0.5 0.3 0.2 0.2 0.0 0.0 0.0 0.2 0.3 0.5 1.4 2.1 3.3 3.9 4.5 5.7 5.9 4.8 8.0 8.1 8.2
1.6 1.9 3.6 3.4 3.6 1.7 0.9 0.6 0.3 0.1 0.2 0.3 0.1 0.1 0.1 0.0 0.0 0.0 0.1 0.2 0.1 0.1 0.2 0.3 0.1 0.7 0.5 0.2 0.0 0.0 0.1 0.1 0.2 0.2 0.6 1.0 1.5 2.4 2.7 2.8 2.9 4.5 4.9 4.7
0.9 0.5 1.3 1.3 1.1 1.0 0.5 0.5 0.5 0.5 0.6 0.5 0.2 0.1 0.0 0.0 0.0 0.1 0.1 0.1 0.0 0.1 0.1 0.1 0.1 0.9 1.0 0.3 0.1 0.2 0.1 0.1 0.2 0.0 0.0 0.1 0.1 0.3 0.5 0.7 1.5 2.5 2.4 2.3
0.4 0.1 0.2 0.8 1.0 0.8 1.0 0.8 0.3 0.5 0.5 0.2 0.2 0.2 0.0 0.0 0.1 0.0 0.1 0.0 0.0 0.6 0.5 0.4 0.3 1.2 1.0 0.7 0.4 0.3 0.3 0.2 0.1 0.1 0.1 0.0 0.1 0.1 0.0 0.0 0.3 0.5 0.9 1.7
0.1 0.2 0.1 0.3 0.2 0.0 0.1 0.1 0.0 0.0 0.0 0.0 0.1 0.0 0.0 0.0 0.0 0.0 0.4 0.3 0.3 0.7 1.0 0.9 1.6 1.1 0.9 0.7 0.3 0.6 0.6 0.7 0.3 0.2 0.1 0.1 0.2 0.1 0.0 0.2 0.2 0.2 0.6 0.0
0.0 0.0 0.0 0.0 0.1 0.0 0.0 0.0 0.0 0.0 0.0 0.0 0.0 0.0 0.0 0.1 0.2 0.4 0.6 0.3 0.2 0.2 0.4 1.4 1.5 1.1 0.8 1.2 0.6 0.7 0.5 0.5 0.5 0.6 0.6 0.6 0.3 0.3 0.3 0.0 0.0 0.0 0.0 0.0
0.0 0.0 0.0 0.0 0.0 0.0 0.0 0.0 0.0 0.0 0.2 0.2 0.1 0.3 0.3 0.3 0.6 0.4 0.4 0.1 0.1 0.1 1.1 1.1 1.0 0.5 0.7 1.1 0.7 0.5 0.7 0.8 0.8 0.9 0.8 0.5 0.3 0.1 0.0 0.0 0.0 0.0 0.0 0.0
0.0 0.0 0.0 0.0 0.0 0.0 0.0 0.3 0.1 0.0 0.3 0.1 0.1 0.0 0.1 0.5 0.6 0.7 0.2 0.4 1.1 1.7 1.2 0.9 0.7 0.6 0.6 0.6 0.4 0.6 0.5 0.8 0.6 0.2 0.0 0.0 0.0 0.0 0.0 0.0 0.0 0.0 0.0 0.0
0.0 0.0 0.0 0.0 0.1 0.0 0.0 0.2 0.0 0.0 0.2 0.0 0.0 0.0 0.2 0.4 0.2 0.1 0.2 0.1 0.9 0.7 0.2 0.2 0.2 0.4 0.4 0.4 0.1 0.4 0.2 0.2 0.1 0.1 0.0 0.0 0.0 0.0 0.0 0.0 0.0 0.0 0.0 0.0
0.0 0.0 0.0 0.1 0.0 0.1 0.2 0.2 0.0 0.1 0.1 0.1 0.1 0.2 0.6 0.7 0.2 0.2 0.5 0.6 0.5 0.1 0.0 0.0 0.1 0.1 0.0 0.0 0.1 0.1 0.1 0.0 0.0 0.0 0.0 0.0 0.0 0.0 0.0 0.0 0.0 0.0 0.0 0.0
0.0 0.0 0.0 0.0 0.0 0.1 0.0 0.0 0.0 0.0 0.0 0.0 0.1 0.1 0.4 0.4 0.3 0.2 0.1 0.2 0.0 0.0 0.0 0.0 0.0 0.0 0.0 0.0 0.0 0.0 0.0 0.0 0.1 0.0 0.0 0.0 0.1 0.0 0.0 0.0 0.0 0.0 0.0 0.0
0.2 0.0 0.0 0.0 0.0 0.2 0.1 0.4 0.2 0.1 0.1 0.1 0.0 0.0 0.1 0.8 0.5 0.2 0.2 0.0 0.0 0.0 0.0 0.0 0.0 0.0 0.0 0.0 0.0 0.0 0.1 0.1 0.0 0.0 0.0 0.0 0.0 0.0 0.0 0.0 0.0 0.0 0.0 0.0
0.0 0.0 0.0 0.1 0.1 0.2 0.2 0.0 0.0 0.0 0.1 0.0 0.3 0.1 0.1 0.0 0.0 0.0 0.0 0.0 0.0 0.0 0.0 0.0 0.0 0.0 0.0 0.0 0.0 0.0 0.0 0.0 0.0 0.0 0.0 0.0 0.0 0.0 0.0 0.0 0.0 0.0 0.0 0.0
0.1 0.2 0.1 0.2 0.0 0.1 0.0 0.0 0.0 0.0 0.2 0.0 0.0 0.0 0.1 0.0 0.0 0.0 0.0 0.0 0.0 0.0 0.0 0.0 0.0 0.0 0.0 0.0 0.0 0.0 0.0 0.0 0.0 0.0 0.0 0.0 0.0 0.0 0.0 0.0 0.0 0.0 0.0 0.0
0.3 0.3 0.4 0.4 0.4 0.2 0.1 0.0 0.2 0.1 0.0 0.1 0.0 0.0 0.0 0.0 0.0 0.0 0.0 0.1 0.1 0.2 0.1 0.0 0.0 0.0 0.0 0.0 0.0 0.0 0.0 0.0 0.0 0.0 0.0 0.0 0.0 0.0 0.0 0.0 0.0 0.0 0.0 0.0